User: anonymous   Login
Location: ?astrovice
(49.6513°N, 14.9287°E)
Time: 19:18:48
(UTC+00:00)
Language:

MOZHAYETS 4 - Orbit

View from above orbital plane
View from above orbital plane
View from above satellite
View from above satellite

Ground track
Ground track

The orbit data is extracted from the following two-line orbital elements,

1 27939U 03042A   21294.56393946  .00000261  00000-0  55295-4 0  9991
2 27939  98.1591  70.9118 0011819 239.0373 120.9668 14.67042359966013
Epoch (UTC): 21 October 2021 13:32:04
Eccentricity: 0.0011819
inclination: 98.1591°
perigee height: 662 km
apogee height: 679 km
right ascension of ascending node: 70.9118°
argument of perigee: 239.0373°
revolutions per day: 14.67042359
mean anomaly at epoch: 120.9668°
orbit number at epoch: 96601

The dashed part of the orbit path shows where the satellite is in the earth's shadow,  

DLR